This demonstration page uses our WeatherBlox Daily Observations layout. Learn more.

Left ArrowRight Arrow

40.92945, -100.16068

Hourly Observations for March 6, 2021

Temp ( °F °C ) Dew Point ( °F °C ) Humidity (%) Winds ( mph kmh ) Pressure ( in mb ) Visibility ( mi km ) Precip ( " mm )
12:15 am 00:15 Clear 42 5.5 33 0.5 71 71 SE 5 7 30.26 1025 10 16 N/A
12:35 am 00:35 Clear 41 4.9 33 0.3 72 72 SE 3 6 30.27 1025 10 16 N/A
12:55 am 00:55 Clear 37 2.8 32 undefined 82 82 N N/A 30.29 1026 10 16 N/A
1:15 am 01:15 Clear 35 1.9 32 undefined 87 87 N N/A 30.29 1026 10 16 N/A
1:35 am 01:35 Clear 37 2.6 32 -0.1 83 83 ESE 3 6 30.28 1025 10 16 N/A
1:55 am 01:55 Clear 37 3 32 -0.1 80 80 ESE 3 6 30.28 1025 10 16 N/A
2:15 am 02:15 Clear 35 1.4 31 -0.6 87 87 ESE 5 7 30.29 1026 10 16 N/A
2:35 am 02:35 Clear 35 1.7 31 -0.6 85 85 ESE 5 7 30.28 1025 10 16 N/A
2:55 am 02:55 Clear 36 2.1 32 -0.2 85 85 ESE 7 11 30.28 1025 10 16 N/A
3:15 am 03:15 Clear 35 1.6 31 -0.5 86 86 ESE 6 9 30.27 1025 10 16 N/A
3:35 am 03:35 Clear 36 2.4 31 -0.5 81 81 ESE 6 9 30.25 1025 10 16 N/A
3:55 am 03:55 Clear 36 2 31 -0.6 83 83 ESE 6 9 30.26 1025 10 16 N/A
4:15 am 04:15 Clear 35 1.6 31 -0.7 85 85 ESE 5 7 30.26 1025 10 16 N/A
4:35 am 04:35 Clear 35 1.6 30 -0.9 84 84 ESE 3 6 30.26 1025 10 16 N/A
4:55 am 04:55 Clear 32 undefined 29 -1.6 89 89 N N/A 30.28 1025 10 16 N/A
5:15 am 05:15 Clear 31 -0.6 28 -2 90 90 N N/A 30.28 1026 10 16 N/A
5:35 am 05:35 Clear 30 -1.3 28 -2.5 92 92 N N/A 30.29 1026 7 11 N/A
5:55 am 05:55 Clear 29 -1.4 27 -2.9 90 90 N N/A 30.29 1026 10 16 N/A
6:15 am 06:15 Clear 29 -1.7 27 -2.8 92 92 N N/A 30.29 1026 7 11 N/A
6:35 am 06:35 Clear 29 -1.5 27 -2.7 92 92 SSW 3 6 30.29 1026 7 11 N/A
6:55 am 06:55 Clear 29 -1.4 28 -2.4 93 93 SW 5 7 30.28 1025 7 11 N/A
7:15 am 07:15 Sunny 30 -1.1 27 -2.8 88 88 SSW 3 6 30.28 1025 10 16 N/A
7:35 am 07:35 Sunny 31 -0.6 28 -2.1 90 90 N N/A 30.27 1025 7 11 N/A
7:55 am 07:55 Sunny 32 undefined 29 -1.6 89 89 N N/A 30.28 1025 7 11 N/A
8:15 am 08:15 Sunny 33 0.5 30 -1 90 90 N N/A 30.27 1025 10 16 N/A
8:35 am 08:35 Sunny 37 2.6 32 -0.2 82 82 N N/A 30.25 1024 10 16 N/A
8:55 am 08:55 Sunny 40 4.5 32 0.2 74 74 N N/A 30.23 1024 10 16 N/A
9:15 am 09:15 Sunny 44 6.5 33 0.6 66 66 SSW 3 6 30.21 1023 10 16 N/A
9:35 am 09:35 Sunny 46 7.9 33 0.3 59 59 S 3 6 30.20 1023 10 16 N/A
9:55 am 09:55 Sunny 49 9.2 33 0.5 55 55 SSW 5 7 30.19 1022 10 16 N/A
10:15 am 10:15 Sunny 52 11.1 33 0.4 48 48 WSW 7 11 30.17 1022 10 16 N/A
10:35 am 10:35 Sunny 55 12.7 34 1.1 45 45 WSW 5 7 30.15 1021 10 16 N/A
10:50 am 10:50 Sunny 58 14.6 34 1 40 40 SW 10 17 30.13 1020 10 16 N/A
11:15 am 11:15 Sunny 62 16.4 32 0.2 33 33 WSW 13 20 30.10 1019 10 16 N/A
11:35 am 11:35 Sunny 63 17.1 33 0.4 32 32 SW 6 9 30.09 1019 10 16 N/A
11:55 am 11:55 Sunny 65 18.1 31 -0.5 29 29 SW 15 24 30.07 1018 10 16 N/A
12:15 pm 12:15 Sunny 65 18.6 31 -0.7 27 27 SSW 16 26 30.05 1018 10 16 N/A
12:35 pm 12:35 Sunny 65 18.6 31 -0.5 28 28 SW 17 28 30.04 1017 10 16 N/A
12:55 pm 12:55 Sunny 67 19.3 31 -0.8 26 26 SW 17 28 30.03 1017 10 16 N/A
1:15 pm 13:15 Sunny 67 19.3 31 -0.7 26 26 SSW 18 30 30.02 1017 10 16 N/A
1:35 pm 13:35 Sunny 67 19.5 32 -0.1 27 27 S 15 24 30.00 1016 10 16 N/A
1:55 pm 13:55 Sunny 69 20.4 29 -1.6 23 23 SSW 21 33 29.97 1015 10 16 N/A
2:15 pm 14:15 Sunny 70 20.9 27 -2.9 20 20 S 23 37 29.96 1015 10 16 N/A
2:35 pm 14:35 Sunny 69 20.8 26 -3.2 20 20 S 22 35 29.96 1014 10 16 N/A
2:55 pm 14:55 Sunny 70 20.9 25 -3.8 19 19 SSW 23 37 29.94 1014 10 16 N/A
3:15 pm 15:15 Sunny 70 20.9 25 -3.9 19 19 S 21 33 29.94 1014 10 16 N/A
3:35 pm 15:35 Sunny 69 20.8 25 -3.8 19 19 S 17 28 29.94 1014 10 16 N/A
3:55 pm 15:55 Sunny 70 20.9 26 -3.5 19 19 SSW 23 37 29.93 1014 10 16 N/A
4:15 pm 16:15 Sunny 69 20.6 25 -3.8 19 19 S 20 31 29.94 1014 10 16 N/A
4:35 pm 16:35 Sunny 69 20.4 26 -3.6 20 20 S 20 31 29.93 1013 10 16 N/A
4:55 pm 16:55 Sunny 68 20.2 26 -3.3 20 20 SSW 21 33 29.93 1014 10 16 N/A
5:15 pm 17:15 Sunny 68 19.8 26 -3.3 21 21 S 23 37 29.92 1013 10 16 N/A
5:35 pm 17:35 Sunny 67 19.5 27 -2.8 22 22 S 21 33 29.93 1013 10 16 N/A
5:55 pm 17:55 Sunny 65 18.6 28 -2.4 24 24 S 20 31 29.93 1014 10 16 N/A
6:15 pm 18:15 Sunny 64 17.7 28 -2.2 26 26 S 20 31 29.94 1014 10 16 N/A
6:35 pm 18:35 Sunny 61 16.3 29 -1.9 29 29 S 15 24 29.95 1014 10 16 N/A
6:55 pm 18:55 Clear 59 15.1 29 -1.7 32 32 S 13 20 29.97 1015 10 16 N/A
7:15 pm 19:15 Clear 58 14.5 30 -1.3 34 34 S 15 24 29.98 1015 10 16 N/A
7:35 pm 19:35 Clear 57 14 30 -1 36 36 S 16 26 29.98 1015 10 16 N/A
7:55 pm 19:55 Clear 56 13.5 30 -1 37 37 S 18 30 29.99 1016 10 16 N/A
8:15 pm 20:15 Clear 56 13.1 30 -1 38 38 S 17 28 29.99 1016 10 16 N/A
8:35 pm 20:35 Clear 56 13.1 30 -1 38 38 S 20 31 29.99 1016 10 16 N/A
8:55 pm 20:55 Clear 54 12.4 30 -1 40 40 S 17 28 30.00 1016 10 16 N/A
9:15 pm 21:15 Clear 54 12.1 30 -1.1 40 40 S 17 28 30.00 1016 10 16 N/A
9:35 pm 21:35 Clear 53 11.6 31 -0.6 43 43 S 20 31 30.01 1016 10 16 N/A
9:55 pm 21:55 Clear 53 11.5 31 -0.5 44 44 S 21 33 30.01 1016 10 16 N/A
10:15 pm 22:15 Clear 53 11.4 31 -0.3 45 45 S 24 39 30.00 1016 10 16 N/A
10:35 pm 22:35 Clear 53 11.4 31 -0.4 44 44 S 21 33 30.00 1016 10 16 N/A
10:55 pm 22:55 Clear 52 10.9 32 -0.2 47 47 S 22 35 30.00 1016 10 16 N/A
11:15 pm 23:15 Clear 51 10.8 32 undefined 48 48 S 22 35 30.00 1016 10 16 N/A
11:35 pm 23:35 Clear 51 10.3 32 undefined 49 49 S 20 31 30.01 1016 10 16 N/A
11:55 pm 23:55 Clear 50 9.9 32 0.2 51 51 S 23 37 30.00 1016 10 16 N/A

Powered by AerisWeather